Location: Sungai Bunut
(2.6333°N, 113.7333°E)
Time: 21:45:08
(UTC+00:00)

Vanguard 2 - Visible Passes

Search period start: 06 December 2023 00:00
Search period end: 16 December 2023 00:00
Orbit: 552 x 2923 km, 32.9° (Epoch: 06 December)

Date Brightness Start Highest point End Pass type
(mag) Time Alt. Az. Time Alt. Az. Time Alt. Az.
06 Dec 10.8 11:45:18 10° W 12:01:01 45° NNW 12:11:43 24° NNE visible
06 Dec 11.4 14:04:34 10° WNW 14:12:57 20° NW 14:12:57 20° NW visible
06 Dec 7.7 20:53:13 32° NW 20:55:57 65° NNE 21:00:25 10° ESE visible
07 Dec 11.0 12:02:16 10° W 12:17:21 37° NNW 12:26:27 24° NNE visible
07 Dec 11.6 14:22:58 10° NW 14:27:41 15° NW 14:27:41 15° NW visible
07 Dec 10.5 19:06:50 11° ENE 19:06:50 11° ENE 19:07:07 10° ENE visible
07 Dec 7.5 21:08:04 26° WNW 21:11:36 74° SW 21:16:03 10° SE visible
08 Dec 10.6 10:04:56 10° WSW 10:19:18 65° NNW 10:37:05 10° NE visible
08 Dec 11.1 12:19:38 10° W 12:33:52 31° NNW 12:41:09 23° N visible
08 Dec 11.8 14:41:12 10° NW 14:42:22 11° NW 14:42:22 11° NW visible
08 Dec 9.9 19:21:41 21° ENE 19:21:41 21° ENE 19:23:37 10° E visible
08 Dec 8.1 21:22:55 18° WNW 21:27:05 42° SW 21:31:19 10° SSE visible
09 Dec 10.8 10:21:10 10° WSW 10:35:24 53° NNW 10:52:38 10° NE visible
09 Dec 11.2 12:37:22 10° WNW 12:50:38 26° NNW 12:55:49 22° N visible
09 Dec 9.2 19:36:31 36° E 19:36:31 36° E 19:39:45 10° ESE visible
09 Dec 8.9 21:37:45 10° W 21:42:30 24° SW 21:46:12 10° SSE visible
10 Dec 10.9 10:37:43 10° W 10:51:41 43° NNW 11:08:07 10° NE visible
10 Dec 11.2 12:55:22 10° WNW 13:07:37 22° NNW 13:10:27 21° N visible
10 Dec 8.4 19:51:20 59° ESE 19:51:20 59° ESE 19:55:33 10° ESE visible
10 Dec 9.5 21:55:03 10° WSW 21:57:54 14° SW 22:00:22 10° S visible
11 Dec 11.1 10:54:36 10° W 11:08:09 35° NNW 11:23:37 10° NE visible
11 Dec 11.3 13:13:26 10° NW 13:24:47 20° N 13:25:03 20° N visible
11 Dec 8.1 20:06:06 67° SSW 20:06:06 67° SSW 20:11:05 10° SE visible
12 Dec 11.2 11:11:51 10° WNW 11:24:50 29° NNW 11:38:25 11° NNE visible
12 Dec 11.4 13:31:16 10° NW 13:39:37 18° NNW 13:39:37 18° NNW visible
12 Dec 8.6 20:20:50 44° SW 20:21:07 44° SW 20:26:19 10° SSE visible
13 Dec 11.3 11:29:25 10° WNW 11:41:44 25° NNW 11:52:58 13° NNE visible
13 Dec 11.5 13:48:36 10° NW 13:54:12 16° NNW 13:54:12 16° NNW visible
13 Dec 10.7 18:34:19 13° ESE 18:34:19 13° ESE 18:34:49 10° ESE visible
13 Dec 9.2 20:35:32 27° SW 20:36:28 28° SW 20:41:14 10° SSE visible
14 Dec 11.3 11:47:10 10° NW 11:58:51 22° N 12:07:31 15° NNE visible
14 Dec 11.6 14:05:21 10° NW 14:08:44 14° NNW 14:08:44 14° NNW visible
14 Dec 10.3 18:48:59 20° ESE 18:48:59 20° ESE 18:50:32 10° SE visible
14 Dec 9.7 20:50:12 16° WSW 20:51:50 18° SW 20:55:39 10° S visible
15 Dec 11.3 12:04:55 10° NW 12:16:08 20° N 12:22:04 17° NNE visible
15 Dec 11.7 14:21:34 10° NNW 14:23:17 13° NNW 14:23:17 13° NNW visible
15 Dec 10.0 19:03:36 26° SE 19:03:36 26° SE 19:06:00 10° SE visible
15 Dec 10.2 21:06:24 10° SW 21:07:18 10° SW 21:08:09 10° SW visible
